ETD69W OMAA-EGLL

Flight info

Callsign ETD69W
Flight time N/A
Altitude 38000
Route DAXIB Q563 UKUVO G462 TUMAK L602 GADSI M860 SEPTU/N0487F400 M860 NINVA UM860 CRM UL746 GOKPA UM10 TIVUG UL852 NEGEM DCT DEGET DCT BEGLA DCT DITIS DCT OKG DCT VELIS DCT SWALM DCT TORNU DCT BREDA DCT ABNED L980 LOGAN
Aircraft B789/H-SDE1E2E3FGHIJ2J3J4J5M1RWXY/LB1D1

Departure

Time N/A
Airport Zayed International Airport (OMAA)

Arrival

Time 2026-05-04 09:39
Airport London Heathrow Airport (EGLL)
Time Latitude Longitude Altitude Speed Heading
2026-05-04 09:30 51.64787 0.10229 8961 ft 250 kts 271°
2026-05-04 09:31 51.64850 0.07479 8742 ft 243 kts 271°
2026-05-04 09:31 51.64930 0.04808 8525 ft 241 kts 272°
2026-05-04 09:31 51.65019 0.02125 8309 ft 240 kts 272°
2026-05-04 09:31 51.65049 -0.00548 7953 ft 241 kts 263°
2026-05-04 09:32 51.64626 -0.03125 7455 ft 233 kts 244°
2026-05-04 09:32 51.63760 -0.05242 6966 ft 221 kts 226°
2026-05-04 09:34 51.55100 -0.11641 4262 ft 186 kts 207°
2026-05-04 09:34 51.54018 -0.12777 3901 ft 187 kts 218°
2026-05-04 09:34 51.53144 -0.14294 3688 ft 185 kts 234°
2026-05-04 09:34 51.52350 -0.15921 3581 ft 187 kts 224°
2026-05-04 09:35 51.51355 -0.17271 3447 ft 188 kts 219°
2026-05-04 09:35 51.50427 -0.18743 3240 ft 186 kts 226°
2026-05-04 09:35 51.49581 -0.20233 2984 ft 175 kts 227°
2026-05-04 09:35 51.48775 -0.21660 2750 ft 169 kts 226°
2026-05-04 09:37 51.47799 -0.33440 1348 ft 157 kts 270°
2026-05-04 09:37 51.47792 -0.35158 1123 ft 151 kts 271°
2026-05-04 09:38 51.47781 -0.36849 922 ft 154 kts 272°
2026-05-04 09:38 51.47788 -0.38558 709 ft 151 kts 272°
2026-05-04 09:38 51.47768 -0.40203 520 ft 152 kts 270°
2026-05-04 09:38 51.47770 -0.41893 322 ft 151 kts 275°
2026-05-04 09:39 51.47768 -0.43571 137 ft 150 kts 271°
2026-05-04 09:39 51.47769 -0.45089 98 ft 112 kts 266°
2026-05-04 09:39 51.47762 -0.46004 91 ft 56 kts 269°
2026-05-04 09:39 51.47753 -0.46512 96 ft 34 kts 262°
2026-05-04 09:40 51.47683 -0.46777 98 ft 17 kts 240°
2026-05-04 09:40 51.47628 -0.46870 95 ft 3 kts 216°
2026-05-04 09:40 51.47609 -0.46890 95 ft 2 kts 212°
2026-05-04 09:40 51.47586 -0.46909 96 ft 5 kts 207°
2026-05-04 09:41 51.47544 -0.46928 93 ft 7 kts 181°
2026-05-04 09:42 51.46914 -0.46864 92 ft 17 kts 179°
2026-05-04 09:43 51.46814 -0.46862 94 ft 14 kts 179°
2026-05-04 09:43 51.46712 -0.46861 94 ft 16 kts 184°
2026-05-04 09:43 51.46659 -0.46976 95 ft 14 kts 261°
2026-05-04 09:43 51.46656 -0.47144 95 ft 16 kts 269°
2026-05-04 09:44 51.46657 -0.47333 95 ft 17 kts 270°
2026-05-04 09:44 51.46632 -0.47471 96 ft 11 kts 212°
2026-05-04 09:44 51.46551 -0.47492 95 ft 13 kts 181°
2026-05-04 09:46 51.46322 -0.46644 93 ft 18 kts 91°
2026-05-04 09:46 51.46321 -0.46441 93 ft 19 kts 89°
2026-05-04 09:46 51.46322 -0.46225 92 ft 20 kts 89°
2026-05-04 09:47 51.46323 -0.46001 92 ft 20 kts 90°
2026-05-04 09:47 51.46325 -0.45778 92 ft 20 kts 90°
2026-05-04 09:49 51.46280 -0.44741 93 ft 10 kts 169°
2026-05-04 09:49 51.46220 -0.44789 96 ft 10 kts 219°
2026-05-04 09:49 51.46188 -0.44811 96 ft 3 kts 176°
2026-05-04 09:51 51.46127 -0.44723 96 ft 0 kts 131°